LBT690 DTTA-LTFM

Flight info

Callsign LBT690
Flight time N/A
Altitude 35000
Route CBN2C CBN UL869 TUPAL DCT MEGAN DCT LATAN/N0458F370 UL869 KRK UM600 TSL UM603 PEREN UN644 DIGTI UT162 DRAMO DRAMO1A/35R
Aircraft A320/M-SDE3FGHIRWY/LB1

Departure

Time N/A
Airport Tunis Carthage International Airport (DTTA)

Arrival

Time 2026-05-03 20:18
Airport İstanbul Airport (LTFM)
Time Latitude Longitude Altitude Speed Heading
2026-05-03 20:15 41.15489 28.72982 2507 ft 169 kts
2026-05-03 20:15 41.16586 28.72959 2271 ft 145 kts
2026-05-03 20:15 41.17533 28.72940 2084 ft 129 kts
2026-05-03 20:15 41.18410 28.72924 1945 ft 125 kts
2026-05-03 20:16 41.19262 28.72909 1763 ft 121 kts
2026-05-03 20:16 41.20090 28.72893 1593 ft 120 kts
2026-05-03 20:16 41.20925 28.72875 1428 ft 120 kts
2026-05-03 20:16 41.21755 28.72851 1214 ft 119 kts
2026-05-03 20:17 41.22579 28.72835 1081 ft 119 kts
2026-05-03 20:17 41.23403 28.72822 889 ft 118 kts
2026-05-03 20:17 41.24225 28.72811 726 ft 119 kts
2026-05-03 20:17 41.25050 28.72798 587 ft 118 kts
2026-05-03 20:18 41.25869 28.72777 427 ft 117 kts
2026-05-03 20:18 41.26678 28.72761 350 ft 111 kts
2026-05-03 20:18 41.27354 28.72771 335 ft 81 kts 359°
2026-05-03 20:18 41.27779 28.72752 333 ft 44 kts 359°
2026-05-03 20:19 41.27941 28.72766 334 ft 10 kts 12°
2026-05-03 20:19 41.28061 28.72829 332 ft 25 kts 29°
2026-05-03 20:19 41.28083 28.72847 332 ft 0 kts 33°
2026-05-03 20:20 41.28098 28.72860 334 ft 7 kts 33°
2026-05-03 20:20 41.28132 28.72910 333 ft 8 kts 78°
2026-05-03 20:20 41.28104 28.72960 332 ft 8 kts 165°
2026-05-03 20:20 41.28014 28.72967 332 ft 18 kts 177°
2026-05-03 20:21 41.27883 28.72965 330 ft 19 kts 178°
2026-05-03 20:21 41.27758 28.72970 331 ft 16 kts 179°
2026-05-03 20:21 41.27662 28.72971 332 ft 13 kts 179°
2026-05-03 20:21 41.27575 28.72973 332 ft 12 kts 179°
2026-05-03 20:22 41.27493 28.72975 333 ft 12 kts 179°
2026-05-03 20:22 41.27413 28.72977 330 ft 12 kts 179°
2026-05-03 20:22 41.27319 28.72979 334 ft 15 kts 179°
2026-05-03 20:22 41.27201 28.72984 334 ft 18 kts 178°
2026-05-03 20:23 41.27070 28.72985 334 ft 19 kts 180°
2026-05-03 20:23 41.26946 28.72987 333 ft 12 kts 179°
2026-05-03 20:23 41.26896 28.72992 332 ft 6 kts 166°
2026-05-03 20:23 41.26870 28.73042 331 ft 7 kts 105°
2026-05-03 20:24 41.26866 28.73117 334 ft 10 kts 90°
2026-05-03 20:24 41.26867 28.73223 334 ft 13 kts 88°
2026-05-03 20:24 41.26869 28.73356 332 ft 15 kts 88°
2026-05-03 20:24 41.26871 28.73501 334 ft 17 kts 89°
2026-05-03 20:25 41.26866 28.73598 334 ft 8 kts 118°
2026-05-03 20:25 41.26822 28.73619 333 ft 8 kts 188°
2026-05-03 20:25 41.26786 28.73614 330 ft 3 kts 177°
2026-05-03 20:25 41.26780 28.73614 333 ft 0 kts 178°